Location: Agna
(45.1667°N, 11.9667°E)
Time: 03:09:40
(UTC+00:00)

Daily predictions for brighter satellites

Satellite Brightness Start Highest point End
(mag) Time Altitude Azimuth Time Altitude Azimuth Time Altitude Azimuth
Cosmos 1825 2.0 00:13:02 67° S 00:13:30 85° E 00:17:18 10° N
Cosmos 540 Rocket 3.6 00:15:11 39° S 00:16:54 62° ESE 00:21:58 10° NNE
DELTA 2 R/B (1) 4.0 00:16:57 39° S 00:17:24 39° SSE 00:22:32 10° E
Cosmos 1408 3.2 00:19:18 41° W 00:19:41 42° WNW 00:23:13 10° N
NOSS 2-2 (E) 4.2 00:20:42 29° ESE 00:20:42 29° ESE 00:23:50 10° ENE
Cosmos 990 Rocket 4.1 00:15:58 10° NNW 00:21:04 58° WSW 00:22:37 40° SSW
SL-16 R/B 3.7 00:19:56 14° WSW 00:23:53 29° NW 00:28:49 10° N
Cosmos 405 Rocket 2.7 00:23:36 54° WSW 00:24:04 59° WNW 00:27:44 10° N
Cosmos 841 Rocket 3.6 00:23:03 37° S 00:24:57 62° ESE 00:30:02 10° NNE
Cosmos 1242 Rocket 3.3 00:21:27 10° N 00:24:57 46° ENE 00:26:09 33° SE
Cosmos 2058 2.8 00:24:22 52° S 00:25:19 86° E 00:29:26 10° N
USA 229 DEB 3.9 00:22:35 24° WSW 00:26:36 65° NW 00:33:27 10° NE
USA 229 3.8 00:22:43 24° SW 00:26:42 66° NW 00:33:33 10° NE
Cosmos 1656 Rocket 3.6 00:21:09 10° NNW 00:26:53 88° WSW 00:30:16 25° SSE
Cosmos 2221 2.5 00:22:36 10° N 00:26:55 77° E 00:28:24 40° SSE
X-37B 0.5 00:28:47 81° E 00:28:47 81° E 00:31:49 10° E
Nadezhda 4 Rocket 3.9 00:30:48 32° S 00:33:50 90° W 00:40:00 10° N
NOSS 2-2 (C) 4.1 00:34:05 30° SE 00:34:19 30° ESE 00:37:30 10° ENE
Cosmos 1898 Rocket 3.6 00:29:15 10° NNW 00:34:22 56° WSW 00:36:11 37° SSW
Cosmos 1937 Rocket 3.4 00:29:23 10° NNW 00:34:44 77° WSW 00:37:19 31° S
NOSS 3-1 (C) 4.5 00:31:11 13° WSW 00:35:40 38° NW 00:41:40 10° NNE
YAOGAN 11 4.3 00:35:34 42° SSW 00:36:44 56° W 00:41:11 10° NNW
Cosmos 2369 Rocket 2.5 00:31:25 10° NW 00:36:55 48° WSW 00:38:58 34° SSW
Aureole 3 Rocket 3.7 00:34:43 10° N 00:38:37 56° E 00:41:59 21° SSE
USA 307 3.3 00:38:07 40° SSE 00:38:49 44° SE 00:42:53 10° ENE
SJ 16-02 3.4 00:38:00 10° WNW 00:40:01 13° W 00:40:01 13° W
CREW DRAGON DEMO-1 DEB 4.1 00:40:05 26° NW 00:40:29 27° NNW 00:42:40 10° NE
ARGOS Delta rocket 4.2 00:38:29 10° NNE 00:44:00 75° E 00:46:49 30° S
NOSS 3-1 (A) 4.0 00:42:41 20° WSW 00:46:22 50° NW 00:52:36 10° NNE
ATLAS 5 CENTAUR R/B 1.9 00:48:04 36° SSE 00:49:08 45° ESE 00:53:15 10° NE
Cosmos 2263 4.4 00:45:06 10° NW 00:50:35 51° WSW 00:53:06 30° SSW
CZ-4 R/B 4.3 00:47:04 10° N 00:51:35 49° WNW 00:53:33 30° SW
Helios 1B rocket 2.9 00:48:22 10° NNE 00:52:23 54° E 00:54:08 30° SSE
Cosmos 1814 Rocket 4.0 00:51:51 31° S 00:54:21 76° ESE 00:59:32 10° NNE
Cosmos 1633 2.5 00:53:22 43° SSE 00:54:22 70° E 00:57:53 10° NNE
ADEOS Rocket 4.0 00:47:27 10° SE 00:54:30 55° ENE 01:00:54 10° N
USA 308 3.0 00:53:26 40° SSW 00:54:42 58° SE 00:58:53 10° ENE
UNK 3.7 00:54:26 24° SSE 00:57:13 83° ENE 01:01:52 10° NNW
CZ-3B R/B 4.3 00:50:32 10° WNW 00:58:00 31° N 01:00:55 10° ENE
Helios 1A 3.8 01:00:06 30° WSW 01:00:56 33° W 01:04:45 10° NNW
Cosmos 1606 2.7 00:59:08 10° NNW 01:02:58 65° W 01:04:12 38° SSW
Cosmos 1570 Rocket 3.9 01:01:44 30° SSW 01:04:25 90° WNW 01:09:41 10° NNE
SL-16 R/B 2.5 00:59:52 19° S 01:04:28 79° WSW 01:10:41 10° NNW
Cosmos 1933 4.1 01:04:26 10° N 01:08:26 50° ENE 01:11:43 14° SSE
Cosmos 372 Rocket 4.0 01:04:29 10° NNW 01:09:42 66° WSW 01:13:10 21° S
USA 290 2.1 01:11:15 46° SSW 01:12:07 85° WNW 01:15:20 10° NNE
USA 305 2.8 01:10:32 31° SW 01:12:32 85° SE 01:16:48 10° ENE
CZ-4C R/B 4.0 01:11:40 10° SSE 01:14:45 17° ESE 01:18:08 10° ENE
Cosmos 1092 Rocket 4.0 01:11:05 24° SSW 01:14:53 74° W 01:21:04 10° N
Lacrosse 4 Rocket 1.3 01:11:56 10° NNW 01:16:02 87° NE 01:20:04 10° SSE
Cosmos 2098 Rocket 4.1 01:15:09 24° SW 01:17:48 40° W 01:22:05 10° N
Cosmos 2208 Rocket 4.1 01:16:33 25° SSW 01:19:46 83° WNW 01:25:16 10° NNE
BREEZE-M R/B 2.6 01:18:12 28° SW 01:19:54 68° SSE 01:25:12 10° ENE
Resurs 1-4 Rocket 2.3 01:15:55 10° N 01:21:10 61° WNW 01:24:24 23° SW
Cosmos 1437 Rocket 4.3 01:18:58 10° NW 01:21:44 19° W 01:22:18 18° W
Meteor 1-29 3.2 01:21:49 10° NNE 01:25:12 64° ESE 01:26:57 26° S
OE (NEXTSAT) 4.4 01:22:34 15° W 01:25:22 76° N 01:28:49 10° E
SL-4 R/B 3.6 01:23:43 10° NW 01:27:03 31° N 01:30:13 10° ENE
MINOTAUR 4 R/B 3.9 01:26:32 21° SSE 01:28:46 85° WSW 01:32:19 10° NNW
Landsat 4 3.8 01:27:17 10° NNE 01:31:03 69° ESE 01:33:22 22° S
NOSS 2-2 (D) 3.2 01:30:21 27° WSW 01:32:02 63° NW 01:35:42 10° NNE
NPP 3.8 01:27:01 10° N 01:32:21 62° WNW 01:35:57 21° SW
ADEOS II 2.1 01:27:35 10° NNE 01:32:52 82° ESE 01:36:49 18° S
Cosmos 921 Rocket 4.0 01:32:38 20° WSW 01:34:50 33° WNW 01:38:40 10° N
USA 306 3.0 01:32:05 20° WSW 01:34:57 71° NNW 01:39:12 10° NE
Meteor 2-3 Rocket 3.7 01:31:29 18° S 01:35:45 85° E 01:41:22 10° NNE
Lacrosse 5 rocket 3.6 01:33:07 10° NNW 01:36:09 25° NNE 01:39:15 10° E
Okean 3 Rocket 4.3 01:32:35 13° SSE 01:36:21 48° E 01:40:35 10° NNE
FALCON 9 DEB 3.1 01:34:27 10° WNW 01:37:47 57° SW 01:41:07 10° SE
CZ-2D R/B 2.7 01:34:53 10° N 01:39:48 43° WNW 01:43:15 18° SW
IRIDIUM 106 4.4 01:35:49 10° N 01:41:04 83° E 01:46:13 10° S
Alouette 2 Rocket 4.0 01:37:52 10° N 01:41:24 55° ENE 01:45:31 10° SSE
ASTEX 1 4.1 01:39:55 10° SSE 01:44:44 54° E 01:49:32 10° N
IDEFIX/ARIANE 42P 3.0 01:42:05 10° NNE 01:47:17 60° E 01:52:17 11° S
Cosmos 2151 3.5 01:44:56 21° SW 01:47:23 45° WNW 01:51:27 10° N
Cosmos 1809 Rocket 4.5 01:42:27 15° S 01:47:45 88° W 01:53:58 10° N
AQUA 4.4 01:47:22 10° N 01:51:56 46° WNW 01:55:17 17° SW
Cosmos 1437 4.5 01:54:12 10° WNW 01:55:43 14° W 01:55:51 14° W
Meteor 1-26 Rocket 4.3 01:50:27 10° NNW 01:56:17 72° W 02:02:14 10° S
DELTA 2 R/B (1) 3.8 01:58:02 10° WSW 02:03:21 48° S 02:08:39 10° ESE
Cosmos 1656 4.5 01:59:18 10° NNW 02:04:57 56° ENE 02:10:31 10° SE
X-37B 0.7 02:02:06 10° W 02:05:13 54° SSW 02:08:19 10° ESE
CBERS-1 4.0 02:01:24 10° NNE 02:06:34 81° WNW 02:11:26 11° SSW
IRS-1D 3.6 02:01:41 10° N 02:06:47 65° WNW 02:11:14 13° SSW
BREEZE-M DEB (TANK) 2.1 02:05:03 10° WNW 02:07:17 53° NNE 02:10:02 10° E
Cosmos 1812 3.0 02:06:57 10° N 02:10:47 69° E 02:14:35 10° SSE
IRS-1C 4.5 02:05:37 10° NNE 02:10:56 65° ESE 02:16:14 10° S
Cosmos 1553 Rocket 4.2 02:04:55 10° NNW 02:11:03 56° W 02:17:03 10° SSW
Cosmos 2292 Rocket 3.7 02:09:53 17° SW 02:11:39 30° WNW 02:14:21 10° NNW
SL-08 R/B 4.1 02:07:50 10° SSE 02:12:22 54° ENE 02:17:01 10° N
CZ-2C R/B 4.3 02:11:04 10° NE 02:15:17 27° E 02:19:22 10° SSE
Cosmos 1697 Rocket 4.4 02:11:02 10° NNW 02:16:18 38° NE 02:21:32 10° ESE
USA 281 3.2 02:10:11 10° SSE 02:16:45 78° WSW 02:23:22 10° NNW
FALCON 9 DEB 3.0 02:13:37 10° NW 02:16:45 77° NNE 02:19:52 10° ESE
S3M 4.0 02:11:02 10° NNW 02:17:11 74° W 02:23:22 10° S
Cosmos 1782 3.2 02:13:48 10° NNW 02:17:38 45° W 02:21:27 10° SSW
GPS 2-04 Rocket1 4.1 02:15:43 14° SW 02:17:44 20° S 02:20:35 10° SE
USA 307 3.9 02:14:45 10° W 02:18:50 43° NNW 02:22:54 10° NE
Meteor 2-21 Rocket 4.5 02:12:59 10° SSW 02:19:06 79° W 02:25:20 10° N
Cosmos 1271 Rocket 2.6 02:15:55 10° NNW 02:19:38 64° W 02:23:21 10° S
MSX 3.9 02:13:52 10° NNE 02:19:41 83° ESE 02:25:26 10° SSW
CZ-4C R/B 3.2 02:21:03 10° S 02:24:26 51° W 02:27:49 10° NNW
Helios 1B rocket 4.5 02:24:48 10° NNW 02:27:13 15° WNW 02:29:36 10° W
ERBS 2.2 02:24:39 12° SW 02:27:32 77° NW 02:30:48 10° NE
Cosmos 1500 Rocket 4.4 02:26:17 10° S 02:30:30 51° E 02:34:41 10° NNE
Cosmos 1328 Rocket 3.8 02:27:25 10° NNW 02:31:39 50° W 02:35:53 10° SSW
NOSS 3-2 (A) 4.2 02:25:17 10° NW 02:32:52 85° NE 02:41:29 10° SE
FALCON 9 DEB 2.9 02:30:39 10° WNW 02:33:40 53° SW 02:36:40 10° SE
ATLAS 5 CENTAUR R/B 3.2 02:30:34 10° W 02:33:57 25° NW 02:37:44 10° NNE
Cosmos 1743 Rocket 4.2 02:30:33 10° S 02:34:49 56° E 02:39:10 10° NNE
USA 308 4.1 02:30:53 10° W 02:34:51 37° NNW 02:38:50 10° NE
SeaSat 1 2.5 02:30:53 10° NNE 02:35:50 82° WNW 02:40:45 10° SSW
Meteor 1-10 Rocket 4.4 02:31:58 10° N 02:37:53 89° E 02:43:39 10° S
Cosmos 44 4.4 02:34:49 10° S 02:39:47 45° ESE 02:44:57 10° NE
ADEOS Rocket 4.1 02:33:49 10° SSW 02:40:10 31° W 02:46:03 10° NNW
FALCON 9 DEB 2.8 02:37:29 10° WNW 02:40:34 61° SW 02:43:38 10° SE
Meteor 2-6 Rocket 4.3 02:34:47 10° NNW 02:40:39 68° W 02:46:20 10° S
FALCON 9 DEB 3.1 02:40:56 10° WNW 02:43:55 46° SW 02:46:53 10° SE
ALOS 4.1 02:39:57 10° NNE 02:44:04 30° E 02:48:11 10° SSE
Cosmos 1980 Rocket 4.2 02:40:56 10° NNW 02:46:03 35° NE 02:51:08 10° ESE
Cosmos 1833 Rocket 3.1 02:42:03 10° SSW 02:47:38 65° ESE 02:53:14 10° NNE
SL-16 R/B 4.3 02:46:26 10° WSW 02:49:00 13° W 02:51:35 10° WNW
Cosmos 2228 Rocket 3.8 02:45:21 10° N 02:49:49 58° ENE 02:54:12 10° SSE
IRS-P3 4.4 02:46:09 10° N 02:51:23 58° WNW 02:56:35 10° SSW
